Regional Weather Roundup
Issued by NWS

Home | Current Version | Previous Version | Text Only | Print | Product List | Glossary On
Versions: 1 2 3 4 5 6 7 8 9 10 11 12 13 14 15 16 17 18 19 20 21 22 23 24 25 26 27 28 29 30 31 32 33 34 35 36 37 38 39 40 41 42 43 44 45 46 47 48 49 50
268
ASUS45 KTFX 210110
RWRMT
MONTANA REGIONAL WEATHER ROUNDUP
NATIONAL WEATHER SERVICE GREAT FALLS MT
700 PM MDT SUN MAY 20 2018

NOTE: "FAIR" INDICATES FEW OR NO CLOUDS BELOW 12000 FEET WITH NO
SIGNIFICANT WEATHER AND/OR OBSTRUCTIONS TO VISIBILITY.

MTZ001>007-043-210200-
WEST OF THE DIVIDE

CITY           SKY/WX    TMP DP  RH WIND       PRES   REMARKS
KALISPELL      FAIR      74  44  34 SW6       29.84S
MISSOULA       PTSUNNY   67  46  47 E14       29.87S
BUTTE          CLOUDY    56  45  66 NW6       29.98R
MULLAN PASS    PTSUNNY   51  42  71 N3        30.00S
ANACONDA         N/A     61  43  51 SE5       29.97R
DEER LODGE       N/A     63  46  55 NW8       29.96F
HAMILTON         N/A     61  46  59 MISG      29.91R
RONAN            N/A     72  46  40 NW8       29.87S
$$

MTZ008-052>055-210200-
SOUTHWEST MONTANA

CITY           SKY/WX    TMP DP  RH WIND       PRES   REMARKS
BOZEMAN        PTSUNNY   66  48  52 SE13      29.90F
DILLON         FAIR      64  45  49 NW3       29.91F
ENNIS          MOSUNNY   66  41  39 NW7       29.95F
W YELLOWSTONE  FAIR      64  36  34 S8        29.98S
$$

MTZ009-010-012-014-046-048-049-054-210200-
EAST SLOPES AND CENTRAL MONTANA

CITY           SKY/WX    TMP DP  RH WIND       PRES   REMARKS
CUT BANK       FAIR      72  34  24 W12       29.86F
GREAT FALLS    FAIR      72  48  42 W6        29.87S
MALMSTROM AFB  FAIR      73  42  32 CALM      29.86F
HELENA         FAIR      69  48  47 N7        29.87F
AUGUSTA        FAIR      62  46  56 SW9       29.91F
BOWMANS CRNR   FAIR      62  44  52 W8        29.88F
CHOTEAU          N/A     68  43  40 S10       29.89F
POWER          FAIR      70  43  37 SW8       29.87F
RAYNESFORD     FAIR      70  42  36 NE9       29.88F
ULM            FAIR      69  49  49 W8        29.87S
WHITE SULPHUR    N/A     64  45  48 S12       29.92F
$$

MTZ011-013-016-021-045-047-050-051-210200-
NORTH CENTRAL MONTANA

CITY           SKY/WX    TMP DP  RH WIND       PRES   REMARKS
HAVRE          FAIR      78  45  30 NE5       29.83F
LEWISTOWN      FAIR      70  48  45 E13       29.90F
N BAR RANCH    FAIR      64  48  55 S12G17    29.97F
CHINOOK          N/A     75  48  38 SE12      29.84S
DENTON         FAIR      73  49  41 S13       29.86F
GEYSER         FAIR      70  47  44 SE16      29.88F
GRASS RANGE    FAIR      67  49  52 S12       29.88F
JUDITH GAP     FAIR      63  50  61 SE12      29.94F
ROY            FAIR      68  50  52 S17       29.89F
STANFORD       FAIR      66  48  52 SE16      29.90F
WINIFRED       FAIR      70  48  44 E14       29.88F
$$

MTZ017>020-022>027-061-062-210200-
NORTHEAST MONTANA

CITY           SKY/WX    TMP DP  RH WIND       PRES   REMARKS
GLASGOW        FAIR      72  40  31 SE18G28   29.93F
GLENDIVE       FAIR      67  37  33 SE16      30.01F
JORDAN           N/A     70  47  43 SE12      29.92F
MALTA          SUNNY     73  46  38 S15       29.87S
SIDNEY         FAIR      68  35  29 SE16G24   30.02F
WOLF POINT     FAIR      72  39  30 SE8       29.97F
PLENTYWOOD       N/A     70  32  24 MISG      30.01F
POPLAR           N/A     70  36  28 MISG      29.98F
$$

MTZ028>42-056>058-210200-
SOUTHCENTRAL AND SOUTHEAST MONTANA

CITY           SKY/WX    TMP DP  RH WIND       PRES   REMARKS
BAKER          FAIR      62  35  36 SE22G30   30.05F
BILLINGS       FAIR      69  48  47 E13       29.92F
LIVINGSTON     FAIR      68  47  46 NE16      29.91F
MILES CITY     FAIR      69  44  40 SE17G24   29.95F
BIG TIMBER     SUNNY     66  48  52 E9        29.94F
FORSYTH          N/A     72  48  43 E12       29.91F
HARLOWTON      FAIR      66  51  58 SE13      29.94F
$$

REGIONAL REPORTS...DAKOTAS

CITY           SKY/WX    TMP DP  RH WIND       PRES   REMARKS
WILLISTON      FAIR      70  30  22 SE12G20   30.03F
MINOT          FAIR      72  30  21 S12       30.07F
DICKINSON      FAIR      63  30  28 SE17      30.07F
BEACH          FAIR      63  30  29 S18G25    30.08F
CROSBY         FAIR      70  27  19 S17       30.03F
TIOGA          FAIR      68  28  22 SE21      30.07F
WATFORD CITY   FAIR      68  27  21 S14G21    30.05S
BISMARCK       FAIR      68  35  29 S12       30.11F
GRAND FORKS    FAIR      70  37  29 SE7       30.11F
FARGO          FAIR      71  35  26 NE7       30.11F
BUFFALO SD       N/A     61  36  39 SE17      30.01F
RAPID CITY     FAIR      58  41  53 SE10      30.09F
$$

REGIONAL REPORTS...WYOMING/IDAHO/WASHINGTON

CITY           SKY/WX    TMP DP  RH WIND       PRES   REMARKS
GILLETTE       FAIR      61  43  51 S17G24    30.03F
SHERIDAN       FAIR      70  45  40 SE15G23   29.93F
BUFFALO WY     FAIR      65  44  46 S16       30.00S
CODY           FAIR      67  40  37 CALM      29.97S
YELLOWSTONE LA   N/A     54  33  45 CALM      30.09S
IDAHO FALLS    CLOUDY    59  50  72 N8        29.91F
SALMON         CLOUDY    66  47  50 N7        29.88F
BOISE          PTSUNNY   71  52  50 CALM      29.82F
SPOKANE        PTSUNNY   71  47  42 W10       29.87S
$$

REGIONAL REPORTS...ALBERTA

CITY           SKY/WX    TMP DP  RH WIND       PRES   REMARKS
CALGARY        MOSUNNY   75  34  22 NW10G22   29.76S
CARDSTON         N/A     72  39  30 W7          N/A
EDMONTON       SUNNY     73  43  33 S6        29.72F
FORT MCMURRAY  SUNNY     79  36  21 SE13      29.71F
HIGH LEVEL     MOSUNNY   79  34  19 E6        29.65F
LETHBRIDGE     PTSUNNY   73  37  27 W17G25    29.79F
LLOYDMINSTER   PTSUNNY   73  41  31 SE10      29.78F
MEDICINE HAT   MOSUNNY   77  41  27 S12G18    29.77F
MILK RIVER       N/A     73  36  25 W16         N/A
PEACE RIVER    PTSUNNY   77  41  27 SE6       29.68S
$$

REGIONAL REPORTS...SASKATCHEWAN

CITY           SKY/WX    TMP DP  RH WIND       PRES   REMARKS
CORONACH         N/A     68  28  22 S17G24      N/A
CYPRESS HILLS    N/A     68  37  32 S12G18      N/A
ESTEVAN        MOSUNNY   70  28  21 S17       30.03F
PRINCE ALBERT  MOSUNNY   75  30  19 SW16      29.91F
REGINA         MOSUNNY   73  25  16 S21G30    29.96F
ROCKGLEN         N/A     66  32  28 S21G28      N/A
SASKATOON      MOSUNNY   75  37  25 S18G25    29.87F
SWIFT CURRENT  MOSUNNY   73  43  33 S18G29    29.86F
VAL MARIE        N/A     72  37  28 S20G26      N/A
$$




USA.gov is the U.S. government's official web portal to all federal, state and local government web resources and services.